Location: Asbacherhof
(48.8543°N, 10.7903°E)
Time: 21:24:43
(UTC+00:00)

Cosmos 1606 Rocket - Pass Details

Date: 26 May 2022
Orbit: 601 x 632 km, 82.5° (Epoch: 29 June)

Event Time Altitude Azimuth Distance (km) Brightness Sun altitude
Rises 02:26:46 0° 346° (NNW) 2,920 7.5 -7.9°
Reaches altitude 10° 02:29:02 10° 343° (NNW) 2,004 6.6 -7.7°
Maximum altitude 02:33:23 56° 266° (W) 740 3.7 -7.1°
Drops below altitude 10° 02:37:39 10° 188° (S) 1,968 5.7 -6.6°
Sets 02:39:52 0° 184° (S) 2,863 6.5 -6.4°
